Home > Weather > Nîmes > Past weeks

Flag for France Weather for the Past 2 Weeks in Nîmes, France

Now
55 °F

Sunny.


Feels Like: 55 °F
Forecast: 45 / 55 °F
Wind: 5 mph from South

Location: Nimes / Garons

Current Time: Feb 8, 2016 at 5:54:31 PM

Latest Report: Feb 8, 2016 at 5:30 PM


Visibility: 10 mi

Pressure: 30.04 "Hg

Humidity: 72%

Dew point: 46 °F

Location of NîmesLocation

Historic Weather in Nîmes — Graph

°F

Nîmes Temperature Yesterday

Maximum temperature yesterday: 55 °F (at 12:30 AM)
Minimum temperature yesterday: 41 °F (at 8:00 PM)
Average temperature yesterday: 50 °F

High & Low Weather Summary for the Past Weeks

 TemperatureHumidityPressure
High68 °F (Feb 1, 2:30 PM)100% (Jan 28, 10:30 PM)30.54 "Hg (Jan 28, 10:30 PM)
Low37 °F (Feb 5, 6:00 AM)31% (Feb 3, 3:30 PM)29.65 "Hg (Feb 7, 7:30 AM)
Average52 °F74%30.30 "Hg
* Reported Jan 24 5:00 PM — Feb 8 5:00 PM, Nîmes, Weather by CustomWeather, © 2016

Note: Actual official high and low records may vary slightly from our data, if they occured in-between our weather recording intervals... More about our weather records

Advertising

Nîmes Weather History for the Previous 24 Hours

 ConditionsComfort  
Time TempWeatherWind HumidityBarometerVisibility
5:00 PM
Mon, Feb 8
59 °FPassing clouds.3 mph59%30.04 "HgN/A
4:30 PM59 °FPassing clouds.8 mph59%30.04 "HgN/A
4:00 PM61 °FPassing clouds.12 mph55%30.04 "HgN/A
3:30 PM61 °FPartly sunny.15 mph59%30.04 "HgN/A
3:00 PM59 °FPassing clouds.13 mph63%30.04 "HgN/A
2:30 PM61 °FSunny.12 mph59%30.04 "Hg10 mi
2:00 PM59 °FSunny.13 mph63%30.04 "Hg10 mi
1:30 PM61 °FPassing clouds.12 mph59%30.07 "HgN/A
1:00 PM57 °FPassing clouds.7 mph59%30.07 "HgN/A
12:30 PM59 °FPassing clouds.9 mph68%30.07 "HgN/A
12:00 PM57 °FPassing clouds.9 mph67%30.07 "HgN/A
11:30 AM54 °FPassing clouds.6 mph72%30.09 "HgN/A
11:00 AM54 °FPassing clouds.5 mph72%30.09 "HgN/A
10:30 AM54 °FCool.10 mph72%30.07 "HgN/A
10:00 AM52 °FSunny.1 mph72%30.09 "Hg10 mi
9:30 AM48 °FSunny.No wind82%30.09 "Hg10 mi
9:00 AM46 °FSunny.2 mph87%30.07 "Hg10 mi
8:30 AM46 °FSunny.2 mph76%30.07 "Hg10 mi
8:00 AM43 °FSunny.2 mph87%30.07 "Hg10 mi
7:30 AM45 °FPassing clouds.5 mph81%30.04 "HgN/A
7:00 AM41 °FPassing clouds.3 mph93%30.04 "HgN/A
6:30 AM43 °FPassing clouds.3 mph81%30.04 "HgN/A
6:00 AM43 °FPassing clouds.3 mph81%30.04 "HgN/A
5:30 AM45 °FClear.2 mph76%30.04 "Hg10 mi
5:00 AM43 °FPassing clouds.5 mph81%30.04 "HgN/A
4:30 AM43 °FClear.5 mph81%30.04 "Hg10 mi
4:00 AM43 °FClear.6 mph81%30.04 "Hg10 mi
3:30 AM43 °FClear.7 mph81%30.04 "Hg10 mi
3:00 AM43 °FClear.9 mph81%30.04 "Hg10 mi
2:00 AM41 °FPassing clouds.3 mph81%30.04 "HgN/A
1:30 AM43 °FClear.2 mph76%30.04 "Hg10 mi
1:00 AM41 °FClear.5 mph81%30.04 "Hg10 mi
12:30 AM43 °FPassing clouds.5 mph76%30.04 "HgN/A
12:00 AM43 °FClear.7 mph76%30.04 "Hg10 mi
11:30 PM
Sun, Feb 7
45 °FClear.6 mph71%30.04 "Hg10 mi
11:00 PM43 °FPassing clouds.5 mph76%30.04 "HgN/A
10:30 PM45 °FClear.6 mph71%30.04 "Hg10 mi
10:00 PM45 °FClear.6 mph71%30.04 "Hg10 mi
9:30 PM43 °FClear.5 mph76%30.04 "Hg10 mi
9:00 PM43 °FClear.7 mph81%30.01 "Hg10 mi
8:30 PM43 °FClear.5 mph81%30.01 "Hg10 mi
8:00 PM41 °FClear.3 mph87%29.98 "Hg10 mi
7:30 PM45 °FClear.6 mph76%29.98 "Hg10 mi
7:00 PM45 °FPassing clouds.6 mph76%29.98 "HgN/A
6:30 PM45 °FPassing clouds.6 mph76%29.95 "HgN/A
6:00 PM45 °FClear.5 mph76%29.92 "Hg10 mi
5:30 PM46 °FSunny.6 mph76%29.92 "Hg10 mi
5:00 PM50 °FSunny.14 mph67%29.89 "Hg10 mi
Weather by CustomWeather, © 2016

See weather overviewHow to use our weather pages